Home > Weather > Witzenhausen > Past weeks

Flag for Germany Past Weather in Witzenhausen, Hesse, Germany — Yesterday and Last 2 Weeks

Now
75 °F

Passing clouds.


Feels Like: 77 °F
Forecast: 58 / 73 °F
Wind: 9 mph from Northwest

Location: Kassel / Calden

Current Time: Jul 25, 2016 at 12:08:43 PM

Latest Report: Jul 25, 2016 at 11:20 AM


Visibility: N/A

Pressure: 30.09 "Hg

Humidity: 61%

Dew Point: 61 °F

Location of WitzenhausenLocation

Past Weather in Witzenhausen — Graph

°F

Witzenhausen Temperature Yesterday

Maximum temperature yesterday: 81 °F (at 2:50 PM)
Minimum temperature yesterday: 63 °F (at 7:20 AM)
Average temperature yesterday: 74 °F

High & Low Weather Summary for the Past Weeks

 TemperatureHumidityPressure
High90 °F (Jul 20, 4:50 PM)100% (Jul 13, 6:50 PM)30.27 "Hg (Jul 13, 6:50 PM)
Low52 °F (Jul 14, 7:20 AM)31% (Jul 20, 2:50 PM)29.83 "Hg (Jul 10, 6:20 PM)
Average70 °F66%30.06 "Hg
* Reported Jul 10 10:20 AM — Jul 25 10:50 AM, Witzenhausen, Weather by CustomWeather, © 2016

Note: Actual official high and low records may vary slightly from our data, if they occured in-between our weather recording intervals... More about our weather records

Advertising

Witzenhausen Weather History for the Previous 24 Hours

Scroll right to see more
 ConditionsComfort  
Time TempWeatherWind HumidityBarometerVisibility
10:50 AM
Mon, Jul 25
75 °FPassing clouds.7 mph69%30.09 "HgN/A
10:20 AM72 °FSunny.8 mph73%30.09 "Hg10 mi
9:50 AM72 °FSunny.7 mph73%30.09 "Hg10 mi
9:20 AM72 °FPassing clouds.7 mph73%30.09 "HgN/A
8:50 AM70 °FSunny.2 mph78%30.09 "Hg10 mi
8:20 AM68 °FSunny.1 mph88%30.09 "Hg10 mi
7:50 AM64 °FSunny.1 mph100%30.09 "Hg10 mi
7:20 AM64 °FSunny.1 mph100%30.09 "Hg10 mi
9:20 PM
Sun, Jul 24
73 °FSunny.2 mph74%30.07 "Hg10 mi
8:50 PM73 °FSunny.3 mph69%30.07 "Hg10 mi
8:20 PM75 °FSunny.2 mph65%30.07 "Hg10 mi
7:50 PM77 °FSunny.2 mph57%30.07 "Hg10 mi
7:20 PM77 °FSunny.2 mph57%30.07 "Hg10 mi
6:50 PM79 °FPartly sunny.2 mph45%30.07 "HgN/A
6:20 PM79 °FPartly sunny.2 mph51%30.07 "HgN/A
5:50 PM79 °FPassing clouds.5 mph39%30.09 "HgN/A
5:20 PM79 °FPassing clouds.6 mph48%30.09 "HgN/A
4:50 PM79 °FScattered clouds.8 mph45%30.09 "HgN/A
4:20 PM79 °FScattered clouds.8 mph48%30.09 "HgN/A
3:50 PM79 °FScattered clouds.7 mph51%30.09 "HgN/A
3:20 PM81 °FScattered clouds.7 mph48%30.09 "HgN/A
2:50 PM81 °FScattered clouds.3 mph48%30.09 "HgN/A
2:20 PM79 °FScattered clouds.2 mph54%30.09 "HgN/A
1:50 PM77 °FScattered clouds.2 mph57%30.09 "HgN/A
1:20 PM77 °FPassing clouds.3 mph54%30.12 "HgN/A
12:50 PM77 °FPassing clouds.3 mph61%30.12 "HgN/A
12:20 PM75 °FSunny.2 mph61%30.12 "Hg10 mi
Weather by CustomWeather, © 2016

See weather overviewHow to use our weather pages